Weather History for Fort Bridger AP, Fort Bridger, WY

Change the Weather History Date:

Monday, January 6, 2014

  Actual Average (KEVW) Record (KEVW)
Temperature  
Mean Temperature 22 °F 21 °F  
Max Temperature 30 °F 28 °F 42 °F (1999)
Min Temperature 14 °F 14 °F 0 °F (2004)
Degree Days  
Heating Degree Days 43 44  
Month to date heating degree days 264  
Since 1 July heating degree days 3743  
Cooling Degree Days 0 0  
Month to date cooling degree days 0  
Year to date cooling degree days 0  
Moisture  
Dew Point 6 °F    
Average Humidity 51    
Maximum Humidity 62    
Minimum Humidity 39    
Precipitation  
Precipitation 0.00 in 0.02 in 0.07 in (2008)
Month to date precipitation 0.12  
Year to date precipitation 0.12  
Sea Level Pressure  
Sea Level Pressure 30.32 in    
Wind  
Wind Speed 18 mph (West)    
Max Wind Speed 30 mph    
Max Gust Speed 36 mph    
Visibility 10 miles    
Events      
T = Trace of Precipitation, MM = Missing Value Source: NWS Daily Summary

Daily Weather History Graph

Daily Weather History Graph

Search for Another Location

Airport:

Trip Planner

Search our weather history database for the weather conditions in past years. The results will help you decide how hot, cold, wet, or windy it might be!

Date:

Astronomy

Jan. 06, 2014 Rise Set
Actual Time 7:47 AM MST 5:07 PM MST
Civil Twilight 7:16 AM MST 5:38 PM MST
Nautical Twilight 6:42 AM MST 6:13 PM MST
Astronomical Twilight 6:08 AM MST 6:46 PM MST
Moon 11:00 AM MST (1/6) 11:49 PM MST (1/6)
Length of Visible Light 10h 21m
Length of Day
9h 19m
Waxing Crescent, 35% of the Moon is Illuminated
Jan 6
Waxing Crescent
Jan 7
First Quarter
Jan 15
Full
Jan 23
Last Quarter
Jan 30
New

Hourly Weather History & Observations

Time (MST) Temp. Windchill Dew Point Humidity Pressure Visibility Wind Dir Wind Speed Gust Speed Precip Events Conditions
12:15 AM 14.9 °F -2.7 °F 4.1 °F 62% 30.32 in 10.0 mi WSW 20.7 mph 27.6 mph N/A   Clear
12:35 AM 15.3 °F -2.2 °F 4.1 °F 61% 30.32 in 10.0 mi WSW 20.7 mph 24.2 mph N/A   Clear
12:55 AM 15.3 °F -1.8 °F 4.1 °F 61% 30.32 in 10.0 mi West 19.6 mph 24.2 mph N/A   Clear
1:15 AM 16.0 °F -2.1 °F 3.9 °F 59% 30.31 in 10.0 mi West 23.0 mph 28.8 mph N/A   Clear
1:35 AM 16.2 °F -1.4 °F 3.2 °F 57% 30.32 in 10.0 mi West 21.9 mph 26.5 mph N/A   Clear
1:55 AM 16.3 °F 0.1 °F 3.2 °F 56% 30.32 in 10.0 mi West 18.4 mph 27.6 mph N/A   Clear
2:15 AM 16.9 °F 0.8 °F 3.6 °F 56% 30.33 in 10.0 mi West 18.4 mph 24.2 mph N/A   Clear
2:35 AM 16.5 °F -0.1 °F 3.2 °F 56% 30.33 in 10.0 mi West 19.6 mph 25.3 mph N/A   Clear
2:55 AM 16.7 °F -0.7 °F 3.2 °F 55% 30.34 in 10.0 mi West 21.9 mph 26.5 mph N/A   Clear
3:15 AM 16.9 °F -0.9 °F 3.2 °F 55% 30.34 in 10.0 mi West 23.0 mph 31.1 mph N/A   Clear
3:35 AM 16.9 °F -0.5 °F 3.2 °F 55% 30.34 in 10.0 mi West 21.9 mph 28.8 mph N/A   Clear
3:55 AM 16.5 °F 0.3 °F 3.0 °F 55% 30.35 in 10.0 mi West 18.4 mph 26.5 mph N/A   Clear
4:15 AM 16.5 °F -0.6 °F 2.1 °F 53% 30.35 in 10.0 mi WSW 20.7 mph 29.9 mph N/A   Clear
4:35 AM 18.5 °F 2.0 °F 1.9 °F 49% 30.35 in 10.0 mi WSW 20.7 mph 29.9 mph N/A   Clear
4:55 AM 18.5 °F 4.9 °F 1.4 °F 47% 30.35 in 10.0 mi WSW 13.8 mph 27.6 mph N/A   Clear
5:15 AM 17.4 °F 4.1 °F 1.9 °F 51% 30.34 in 10.0 mi WSW 12.7 mph 20.7 mph N/A   Clear
5:35 AM 17.8 °F 5.9 °F 1.8 °F 50% 30.34 in 10.0 mi WSW 10.4 mph 19.6 mph N/A   Clear
5:55 AM 18.1 °F 2.9 °F 1.2 °F 48% 30.35 in 10.0 mi West 17.3 mph 20.7 mph N/A   Clear
6:15 AM 16.7 °F 6.2 °F 0.7 °F 49% 30.35 in 10.0 mi WSW 8.1 mph 19.6 mph N/A   Clear
6:35 AM 16.7 °F 1.5 °F 1.2 °F 51% 30.35 in 10.0 mi West 16.1 mph 19.6 mph N/A   Clear
6:55 AM 17.4 °F 2.9 °F 1.4 °F 50% 30.36 in 10.0 mi West 15.0 mph - N/A   Clear
7:15 AM 16.9 °F 1.7 °F 1.8 °F 52% 30.36 in 10.0 mi West 16.1 mph - N/A   Clear
7:35 AM 15.8 °F -0.2 °F 2.3 °F 55% 30.37 in 10.0 mi West 17.3 mph - N/A   Clear
7:55 AM 16.9 °F 0.3 °F 1.0 °F 50% 30.36 in 10.0 mi West 19.6 mph 28.8 mph N/A   Clear
8:15 AM 16.5 °F 0.3 °F 1.6 °F 52% 30.37 in 10.0 mi West 18.4 mph 21.9 mph N/A   Clear
8:35 AM 17.6 °F 2.7 °F 1.4 °F 49% 30.38 in 10.0 mi West 16.1 mph 23.0 mph N/A   Clear
8:55 AM 18.5 °F 7.5 °F 1.6 °F 48% 30.39 in 10.0 mi WSW 9.2 mph - N/A   Clear
9:15 AM 19.8 °F 6.5 °F 2.5 °F 47% 30.39 in 10.0 mi WSW 13.8 mph - N/A   Clear
9:35 AM 21.2 °F 6.4 °F 3.2 °F 46% 30.40 in 10.0 mi West 18.4 mph 24.2 mph N/A   Clear
9:50 AM 22.1 °F 6.8 °F 3.2 °F 44% 30.40 in 10.0 mi West 20.7 mph 27.6 mph N/A   Clear
10:10 AM 23.7 °F 8.5 °F 4.6 °F 44% 30.41 in 10.0 mi West 21.9 mph 26.5 mph N/A   Clear
10:35 AM 25.2 °F 12.9 °F 4.8 °F 42% 30.40 in 10.0 mi West 15.0 mph 21.9 mph N/A   Clear
10:55 AM 26.2 °F 13.4 °F 4.8 °F 40% 30.40 in 10.0 mi West 17.3 mph 21.9 mph N/A   Clear
11:15 AM 27.0 °F 14.3 °F 4.8 °F 39% 30.39 in 10.0 mi West 17.3 mph 25.3 mph N/A   Clear
11:35 AM 27.9 °F 15.1 °F 6.1 °F 40% 30.39 in 10.0 mi West 18.4 mph 25.3 mph N/A   Clear
12:15 PM 27.9 °F 13.1 °F 6.1 °F 40% 30.35 in 10.0 mi West 25.3 mph 32.2 mph N/A   Clear
12:30 PM 27.9 °F 12.8 °F 7.0 °F 41% 30.34 in 10.0 mi West 26.5 mph 32.2 mph N/A   Clear
1:15 PM 27.9 °F 13.7 °F 6.1 °F 40% 30.33 in 10.0 mi West 23.0 mph 32.2 mph N/A   Clear
1:35 PM 27.9 °F 13.4 °F 6.1 °F 40% 30.32 in 10.0 mi West 24.2 mph 31.1 mph N/A   Clear
1:55 PM 29.3 °F 15.3 °F 7.2 °F 39% 30.32 in 10.0 mi West 24.2 mph 32.2 mph N/A   Clear
2:15 PM 28.4 °F 14.1 °F 7.3 °F 41% 30.30 in 10.0 mi West 24.2 mph 29.9 mph N/A   Clear
2:35 PM 28.4 °F 12.7 °F 8.4 °F 43% 30.30 in 10.0 mi West 29.9 mph 34.5 mph N/A   Clear
2:55 PM 30.0 °F 15.4 °F 10.4 °F 44% 30.30 in 10.0 mi West 27.6 mph 33.4 mph N/A   Clear
3:15 PM 30.4 °F 15.7 °F 9.5 °F 42% 30.30 in 10.0 mi West 28.8 mph 35.7 mph N/A   Clear
3:35 PM 30.2 °F 16.8 °F 9.7 °F 42% 30.30 in 10.0 mi West 23.0 mph 32.2 mph N/A   Clear
3:55 PM 30.2 °F 18.9 °F 9.5 °F 42% 30.30 in 10.0 mi West 16.1 mph 26.5 mph N/A   Clear
4:15 PM 30.0 °F 21.7 °F 10.4 °F 44% 30.32 in 10.0 mi WSW 9.2 mph - N/A   Clear
4:35 PM 29.3 °F 21.5 °F 10.0 °F 45% 30.31 in 10.0 mi West 8.1 mph - N/A   Clear
4:55 PM 27.7 °F 16.6 °F 10.9 °F 50% 30.30 in 10.0 mi West 13.8 mph - N/A   Clear
5:15 PM 26.2 °F 17.8 °F 10.9 °F 52% 30.30 in 10.0 mi West 8.1 mph - N/A   Clear
5:40 PM 24.8 °F 14.6 °F 10.0 °F 54% 30.30 in 10.0 mi West 10.4 mph - N/A   Clear
5:55 PM 24.8 °F 14.0 °F 10.0 °F 54% 30.30 in 10.0 mi West 11.5 mph - N/A   Clear
6:15 PM 24.4 °F 13.0 °F 9.5 °F 53% 30.30 in 10.0 mi West 12.7 mph - N/A   Clear
6:35 PM 24.6 °F 12.7 °F 9.9 °F 54% 30.29 in 10.0 mi West 13.8 mph - N/A   Clear
6:55 PM 24.3 °F 11.2 °F 10.2 °F 55% 30.29 in 10.0 mi West 16.1 mph - N/A   Clear
7:15 PM 23.7 °F 11.0 °F 10.4 °F 57% 30.29 in 10.0 mi West 15.0 mph - N/A   Clear
7:35 PM 24.1 °F 11.5 °F 10.4 °F 56% 30.29 in 10.0 mi West 15.0 mph - N/A   Clear
7:55 PM 23.2 °F 11.4 °F 10.9 °F 60% 30.28 in 10.0 mi West 12.7 mph - N/A   Clear
8:15 PM 23.7 °F 10.5 °F 10.9 °F 58% 30.28 in 10.0 mi WSW 16.1 mph 21.9 mph N/A   Clear
8:35 PM 24.8 °F 12.4 °F 10.9 °F 56% 30.27 in 10.0 mi WSW 15.0 mph - N/A   Clear
8:55 PM 22.6 °F 11.3 °F 10.9 °F 61% 30.26 in 10.0 mi West 11.5 mph - N/A   Clear
9:15 PM 22.5 °F 9.4 °F 11.1 °F 62% 30.26 in 10.0 mi WSW 15.0 mph - N/A   Clear
9:40 PM 25.0 °F 11.7 °F 11.3 °F 56% 30.25 in 10.0 mi WSW 17.3 mph - N/A   Clear
9:55 PM 25.7 °F 12.7 °F 11.3 °F 55% 30.25 in 10.0 mi WSW 17.3 mph - N/A   Clear
10:15 PM 25.7 °F 14.0 °F 11.5 °F 55% 30.25 in 10.0 mi West 13.8 mph - N/A   Clear
10:35 PM 25.7 °F 13.5 °F 11.3 °F 55% 30.24 in 10.0 mi West 15.0 mph - N/A   Clear
10:55 PM 25.3 °F 14.1 °F 11.1 °F 55% 30.24 in 10.0 mi West 12.7 mph - N/A   Clear
11:15 PM 23.0 °F 12.4 °F 10.9 °F 60% 30.23 in 10.0 mi West 10.4 mph - N/A   Clear
11:35 PM 21.7 °F 10.2 °F 10.4 °F 62% 30.21 in 10.0 mi West 11.5 mph - N/A   Clear
11:55 PM 22.3 °F 10.2 °F 10.0 °F 59% 30.20 in 10.0 mi West 12.7 mph - N/A   Clear